Jacksonville, FL

7:54 PM EST on December 04, 2016 (GMT -0500)
Cecil

Weather History for KVQQ - January, 2014

Change the Weather History Date:

Tuesday, January 28, 2014

  Actual Average (KJAX) Record (KJAX)
Temperature  
Mean Temperature 48 °F 54 °F  
Max Temperature 57 °F 66 °F 83 °F (1957)
Min Temperature 39 °F 42 °F 16 °F (1986)
Degree Days  
Heating Degree Days 17 12  
Month to date heating degree days 349  
Since 1 July heating degree days 845  
Cooling Degree Days 0 0  
Month to date cooling degree days 0  
Year to date cooling degree days 0  
Moisture  
Dew Point 51 °F    
Average Humidity 96    
Maximum Humidity 100    
Minimum Humidity 88    
Precipitation  
Precipitation 0.07 in 0.12 in 2.06 in (1973)
Month to date precipitation 2.96  
Year to date precipitation 2.96  
Snow  
Snow 0.00 in 0.00 in 0.00 in (2002)
Month to date snowfall 0.0  
Since 1 July snowfall T  
Snow Depth -    
Sea Level Pressure  
Sea Level Pressure 30.03 in    
Wind  
Wind Speed 2 mph (NNE)    
Max Wind Speed 16 mph    
Max Gust Speed -    
Visibility 4 miles    
Events Rain    
T = Trace of Precipitation, MM = Missing Value Source: NWS Daily Summary

Daily Weather History Graph

Daily Weather History Graph

Search for Another Location

Airport or City:

Trip Planner

Search our weather history database for the weather conditions in past years. The results will help you decide how hot, cold, wet, or windy it might be!

Date:

Astronomy

Jan. 28, 2014 Rise Set
Actual Time 7:20 AM EST 6:00 PM EST
Civil Twilight 6:55 AM EST 6:26 PM EST
Nautical Twilight 6:26 AM EST 6:55 PM EST
Astronomical Twilight 5:57 AM EST 7:23 PM EST
Moon 4:57 AM EST (1/28) 3:51 PM EST (1/28)
Length of Visible Light 11h 31m
Length of Day
10h 40m
Waning Crescent, 7% of the Moon is Illuminated
Jan 28
Waning Crescent
Jan 30
New
Feb 6
First Quarter
Feb 14
Full
Feb 22
Last Quarter

Hourly Weather History & Observations

Time (EST) Temp. Windchill Dew Point Humidity Pressure Visibility Wind Dir Wind Speed Gust Speed Precip Events Conditions
12:15 AM 55.4 °F - 53.6 °F 94% 30.00 in 10.0 mi Calm Calm - N/A   Overcast
12:35 AM 55.4 °F - 51.8 °F 88% 30.00 in 10.0 mi Calm Calm - N/A   Mostly Cloudy
12:55 AM 55.4 °F - 53.6 °F 94% 30.00 in 10.0 mi Calm Calm - N/A   Scattered Clouds
1:15 AM 55.4 °F - 53.6 °F 94% 30.00 in 10.0 mi Calm Calm - N/A   Mostly Cloudy
1:35 AM 55.4 °F - 53.6 °F 94% 30.00 in 10.0 mi Calm Calm - N/A   Overcast
1:55 AM 57.2 °F - 53.6 °F 88% 30.00 in 10.0 mi West 3.5 mph - N/A   Mostly Cloudy
2:15 AM 57.2 °F - 53.6 °F 88% 29.99 in 10.0 mi Calm Calm - N/A   Scattered Clouds
2:35 AM 57.2 °F - 53.6 °F 88% 29.99 in 10.0 mi Calm Calm - N/A   Scattered Clouds
2:55 AM 57.2 °F - 53.6 °F 88% 29.99 in 10.0 mi West 3.5 mph - N/A   Mostly Cloudy
3:15 AM 57.2 °F - 55.4 °F 94% 30.00 in 5.0 mi Calm Calm - N/A Rain Light Rain
3:35 AM 57.2 °F - 55.4 °F 94% 30.00 in 1.5 mi Calm Calm - 0.02 in Rain Light Rain
3:55 AM 55.4 °F - 55.4 °F 100% 30.00 in 1.5 mi Calm Calm - 0.04 in Rain Light Rain
4:15 AM 55.4 °F - 55.4 °F 100% 30.00 in 1.2 mi Calm Calm - 0.01 in Rain Light Rain
4:35 AM 55.4 °F - 55.4 °F 100% 30.00 in 1.0 mi Calm Calm - 0.02 in Rain Light Rain
4:55 AM 55.4 °F - 55.4 °F 100% 30.00 in 2.0 mi Calm Calm - 0.02 in   Overcast
5:15 AM 55.4 °F - 55.4 °F 100% 30.00 in 2.0 mi Calm Calm - N/A Rain Light Rain
5:35 AM 55.4 °F - 55.4 °F 100% 30.00 in 1.8 mi Calm Calm - N/A Rain Light Rain
5:55 AM 55.4 °F - 55.4 °F 100% 30.00 in 1.5 mi Calm Calm - N/A Rain Light Rain
6:15 AM 57.2 °F - 57.2 °F 100% 30.02 in 3.0 mi Calm Calm - N/A   Overcast
6:35 AM 57.2 °F - 55.4 °F 94% 30.02 in 2.5 mi Calm Calm - N/A   Overcast
6:50 AM 55.4 °F - 55.4 °F 100% 30.02 in 2.0 mi Calm Calm - N/A Rain Light Rain
7:50 AM 57.2 °F - 57.2 °F 100% 30.04 in 2.5 mi Calm Calm - N/A   Overcast
8:50 AM 57.2 °F - 57.2 °F 100% 30.06 in 2.0 mi Calm Calm - N/A   Overcast
9:50 AM 57.2 °F - 57.2 °F 100% 30.07 in 2.0 mi NNE 4.6 mph - N/A   Overcast
10:50 AM 57.2 °F - 55.4 °F 94% 30.09 in 1.0 mi ENE 8.1 mph - N/A   Overcast
11:50 AM 55.4 °F - 55.4 °F 100% 30.08 in 2.0 mi NNE 4.6 mph - N/A   Overcast
12:50 PM 55.4 °F - 53.6 °F 94% 30.05 in 1.0 mi NNE 11.5 mph - N/A   Overcast
1:50 PM 53.6 °F - 53.6 °F 100% 30.04 in 1.0 mi NE 11.5 mph - N/A   Overcast
2:50 PM 51.8 °F - 50.0 °F 94% 30.02 in 1.0 mi NNE 6.9 mph - N/A   Overcast
3:50 PM 50.0 °F - 50.0 °F 100% 30.03 in 1.0 mi NNE 8.1 mph - N/A Rain Light Rain
4:50 PM 48.2 °F - 48.2 °F 100% 30.03 in 1.0 mi NNE 8.1 mph - N/A   Overcast
5:50 PM 46.4 °F 43.5 °F 46.4 °F 100% 30.03 in 1.0 mi NE 5.8 mph - N/A   Overcast
6:50 PM 46.4 °F 43.5 °F 46.4 °F 100% 30.03 in 1.0 mi NE 5.8 mph - N/A   Overcast
7:50 PM 46.4 °F 43.5 °F 44.6 °F 93% 30.05 in 1.0 mi NNE 5.8 mph - N/A   Overcast
8:15 PM 46.4 °F 42.4 °F 44.6 °F 93% 30.06 in 5.0 mi NE 8.1 mph - N/A   Overcast
8:35 PM 46.4 °F 43.5 °F 44.6 °F 93% 30.05 in 3.0 mi NNE 5.8 mph - N/A   Overcast
8:55 PM 46.4 °F 45.2 °F 44.6 °F 93% 30.06 in 3.0 mi NNE 3.5 mph - N/A   Overcast
9:15 PM 44.6 °F 40.7 °F 44.6 °F 100% 30.06 in 2.5 mi North 6.9 mph - N/A Rain Light Rain
9:35 PM 44.6 °F 40.7 °F 44.6 °F 100% 30.06 in 5.0 mi North 6.9 mph - N/A   Overcast
9:55 PM 44.6 °F 41.4 °F 44.6 °F 100% 30.07 in 3.0 mi NNW 5.8 mph - N/A   Overcast
10:15 PM 44.6 °F 39.2 °F 42.8 °F 93% 30.07 in 1.0 mi North 10.4 mph - N/A Rain Light Rain
10:35 PM 41.0 °F 33.1 °F 41.0 °F 100% 30.08 in 2.5 mi NNW 15.0 mph - N/A Rain Light Rain
10:55 PM 41.0 °F 32.8 °F 39.2 °F 93% 30.09 in 2.5 mi North 16.1 mph - 0.01 in Rain Light Rain
11:15 PM 39.2 °F 32.0 °F 39.2 °F 100% 30.09 in 4.0 mi North 11.5 mph - N/A Rain Light Rain
11:35 PM 39.2 °F - 39.2 °F 100% 30.08 in 7.0 mi Calm Calm - N/A   Overcast
11:55 PM 39.2 °F - 39.2 °F 100% 30.06 in 6.0 mi Calm Calm - N/A   Overcast